FW6216 Weather Reports


Display with metric or nautical units.
time (UTC)temp
F
wind
direction
speed
MPH
gust
MPH
rain 1hr
in
rain 24hr
in
rain mn
in
humidity
%
barometer
mb
20260502213036 76 37 9.0 17.0 0.00 0.00 0.00 40 1016.0
20260502211608 76 47 8.0 15.0 0.00 0.00 0.00 42 1016.2
20260502210150 76 42 6.0 11.0 0.00 0.00 0.00 43 1016.4
20260502204532 76 36 6.0 12.0 0.00 0.00 0.00 42 1016.5
20260502203031 77 29 6.0 14.0 0.00 0.00 0.00 40 1016.5
20260502201607 78 10 6.0 11.0 0.00 0.00 0.00 38 1016.6
20260502200029 78 359 5.0 13.0 0.00 0.00 0.00 38 1016.7
20260502194534 78 56 5.0 10.0 0.00 0.00 0.00 38 1016.9
20260502191535 77 346 4.0 11.0 0.00 0.00 0.00 39 1017.0
20260502190147 76 20 3.0 10.0 0.00 0.00 0.00 41 1017.2
20260502184532 75 112 3.0 11.0 0.00 0.00 0.00 45 1017.5
20260502183037 71 208 3.0 8.0 0.00 0.00 0.00 54 1017.5
20260502181609 68 242 3.0 8.0 0.00 0.00 0.00 60 1017.6
20260502180111 64 266 1.0 5.0 0.00 0.00 0.00 66 1017.6
20260502163035 58 19 2.0 4.0 0.00 0.00 0.00 80 1017.8
20260502123036 53 251 1.0 4.0 0.00 0.00 0.00 75 1016.4
20260502121530 54 214 0.0 4.0 0.00 0.00 0.00 74 1016.4
20260502113108 56 244 4.0 9.0 0.00 0.00 0.00 72 1016.5
20260502111532 56 116 4.0 8.0 0.00 0.00 0.00 72 1016.5
20260502110037 55 144 5.0 11.0 0.00 0.00 0.00 73 1016.2
20260502104533 54 115 2.0 6.0 0.00 0.00 0.00 73 1016.3
20260502103036 54 157 0.0 3.0 0.00 0.00 0.00 73 1016.7
20260502101529 55 246 2.0 4.0 0.00 0.00 0.00 73 1016.6
20260502091529 55 128 1.0 6.0 0.00 0.00 0.00 71 1016.5
20260502090111 56 305 3.0 5.0 0.00 0.00 0.00 71 1016.7
20260502070147 54 201 1.0 4.0 0.00 0.00 0.00 66 1017.1
20260502064537 55 276 2.0 4.0 0.00 0.00 0.00 65 1017.0
20260502063030 55 202 2.0 4.0 0.00 0.00 0.00 64 1017.1
20260502061536 55 164 1.0 5.0 0.00 0.00 0.00 62 1016.9
20260502060035 56 208 0.0 4.0 0.00 0.00 0.00 61 1016.7
20260502053110 58 190 3.0 5.0 0.00 0.00 0.00 57 1016.9
20260502051531 59 305 2.0 6.0 0.00 0.00 0.00 54 1016.6
20260502050031 61 152 1.0 4.0 0.00 0.00 0.00 51 1016.7
20260502044537 63 14 1.0 3.0 0.00 0.00 0.00 48 1016.4
20260502041530 63 331 2.0 4.0 0.00 0.00 0.00 48 1016.3
20260502040034 64 139 0.0 3.0 0.00 0.00 0.00 47 1016.2
20260502034534 64 309 2.0 5.0 0.00 0.00 0.00 46 1016.0
20260502033032 65 263 0.0 3.0 0.00 0.00 0.00 46 1016.0
20260502031531 66 276 1.0 3.0 0.00 0.00 0.00 46 1015.9
20260502030030 67 309 0.0 3.0 0.00 0.00 0.00 45 1015.6
20260502024537 68 11 3.0 5.0 0.00 0.00 0.00 44 1015.3
20260502020036 71 16 5.0 11.0 0.00 0.00 0.00 39 1015.0
20260502013030 72 26 6.0 12.0 0.00 0.00 0.00 38 1015.0
20260502011529 73 20 7.0 12.0 0.00 0.00 0.00 37 1015.0
20260502010030 73 23 8.0 14.0 0.00 0.00 0.00 36 1015.0
20260502004529 74 39 8.0 16.0 0.00 0.00 0.00 35 1015.0
20260502003035 75 36 9.0 15.0 0.00 0.00 0.00 35 1014.9
20260502000032 77 358 10.0 17.0 0.00 0.00 0.00 35 1015.0
20260501230035 79 39 9.0 18.0 0.00 0.00 0.00 33 1015.5
20260501224536 78 1 9.0 20.0 0.00 0.00 0.00 35 1015.8
20260501223036 78 4 9.0 17.0 0.00 0.00 0.00 36 1016.1
20260501221533 77 348 9.0 15.0 0.00 0.00 0.00 37 1016.4
20260501220034 77 348 8.0 15.0 0.00 0.00 0.00 37 1016.7
20260501214530 77 8 9.0 16.0 0.00 0.00 0.00 37 1016.9